QPF
0.00 0.00 0.00 0.00 0.00 0.00 0.00 0.00 0.00 0.00 0.00 0.00 0.00 0.00 0.00 0.01 0.01 0.02 0.00 0.00 0.01 0.02 0.05 0.14 0.09 0.08 0.09 0.12 0.13 0.12 0.10 0.09 0.11 0.13 0.12 0.09 0.09 0.12 0.17 0.14 0.13 0.17 0.18 0.15 0.14 0.10 0.08 0.08 0.09
0.00 0.00 0.00 0.00 0.00 0.00 0.00 0.00 0.00 0.00 0.00 0.00 0.00 0.00 0.00 0.00 0.00 0.00 0.00 0.00 0.01 0.01 0.04 0.15 0.15 0.11 0.09 0.11 0.11 0.10 0.09 0.08 0.11 0.15 0.14 0.11 0.10 0.14 0.15 0.14 0.13 0.17 0.17 0.14 0.12 0.09 0.09 0.09 0.08
0.00 0.00 0.00 0.00 0.00 0.00 0.00 0.00 0.00 0.00 0.00 0.00 0.00 0.00 0.00 0.00 0.01 0.01 0.00 0.00 0.01 0.02 0.04 0.09 0.12 0.11 0.09 0.10 0.11 0.10 0.08 0.08 0.12 0.16 0.14 0.12 0.14 0.17 0.17 0.17 0.16 0.16 0.14 0.12 0.10 0.11 0.11 0.11 0.10
0.00 0.00 0.00 0.00 0.00 0.00 0.00 0.00 0.00 0.00 0.00 0.00 0.00 0.01 0.01 0.01 0.01 0.01 0.00 0.00 0.01 0.01 0.03 0.05 0.07 0.06 0.06 0.09 0.13 0.11 0.11 0.12 0.14 0.17 0.13 0.12 0.16 0.19 0.19 0.18 0.18 0.15 0.13 0.10 0.08 0.09 0.10 0.09 0.06
0.00 0.00 0.00 0.00 0.00 0.00 0.00 0.00 0.00 0.00 0.00 0.00 0.00 0.01 0.01 0.02 0.00 0.00 0.00 0.00 0.01 0.01 0.02 0.04 0.06 0.09 0.13 0.15 0.15 0.15 0.15 0.13 0.15 0.15 0.11 0.10 0.14 0.17 0.17 0.15 0.13 0.11 0.10 0.09 0.08 0.08 0.09 0.07 0.06
0.00 0.00 0.00 0.00 0.00 0.00 0.00 0.00 0.00 0.00 0.00 0.00 0.00 0.00 0.01 0.01 0.01 0.00 0.00 0.00 0.01 0.01 0.02 0.04 0.05 0.06 0.10 0.13 0.14 0.16 0.16 0.15 0.14 0.16 0.16 0.13 0.12 0.12 0.11 0.10 0.09 0.09 0.09 0.07 0.07 0.08 0.08 0.06 0.06
0.00 0.00 0.00 0.00 0.00 0.00 0.00 0.00 0.00 0.00 0.00 0.00 0.00 0.00 0.00 0.01 0.01 0.00 0.00 0.00 0.01 0.01 0.01 0.02 0.03 0.06 0.07 0.13 0.16 0.15 0.17 0.16 0.14 0.18 0.20 0.15 0.11 0.11 0.10 0.09 0.08 0.09 0.09 0.07 0.06 0.07 0.07 0.06 0.06
0.00 0.00 0.00 0.00 0.00 0.00 0.00 0.00 0.00 0.00 0.00 0.00 0.00 0.00 0.00 0.00 0.01 0.00 0.01 0.01 0.01 0.02 0.02 0.01 0.03 0.06 0.09 0.09 0.09 0.08 0.11 0.12 0.12 0.17 0.20 0.19 0.15 0.12 0.08 0.07 0.07 0.08 0.08 0.07 0.07 0.06 0.06 0.06 0.07
0.00 0.00 0.00 0.00 0.00 0.00 0.00 0.00 0.00 0.00 0.00 0.00 0.00 0.00 0.00 0.00 0.00 0.01 0.01 0.01 0.01 0.01 0.01 0.01 0.02 0.04 0.06 0.06 0.07 0.07 0.08 0.08 0.09 0.13 0.19 0.21 0.15 0.10 0.09 0.07 0.08 0.08 0.08 0.08 0.08 0.06 0.04 0.04 0.06
0.00 0.00 0.00 0.00 0.00 0.00 0.00 0.00 0.00 0.00 0.00 0.00 0.00 0.00 0.00 0.00 0.01 0.01 0.00 0.01 0.00 0.00 0.00 0.01 0.01 0.01 0.01 0.02 0.05 0.07 0.07 0.08 0.09 0.10 0.15 0.20 0.14 0.10 0.07 0.09 0.09 0.09 0.11 0.09 0.08 0.07 0.04 0.03 0.03
0.00 0.00 0.00 0.00 0.00 0.00 0.00 0.00 0.00 0.00 0.00 0.00 0.00 0.00 0.00 0.00 0.00 0.01 0.00 0.00 0.00 0.00 0.01 0.00 0.01 0.01 0.02 0.02 0.03 0.04 0.05 0.06 0.06 0.05 0.09 0.14 0.12 0.08 0.08 0.11 0.11 0.10 0.09 0.07 0.06 0.06 0.05 0.04 0.04
0.00 0.00 0.00 0.00 0.00 0.00 0.00 0.00 0.00 0.00 0.00 0.00 0.00 0.00 0.00 0.00 0.00 0.00 0.00 0.00 0.00 0.00 0.01 0.01 0.01 0.02 0.03 0.03 0.03 0.03 0.03 0.02 0.03 0.04 0.05 0.09 0.12 0.08 0.09 0.11 0.10 0.08 0.07 0.08 0.07 0.07 0.07 0.07 0.04
0.00 0.00 0.00 0.00 0.00 0.00 0.00 0.00 0.00 0.00 0.00 0.00 0.00 0.00 0.00 0.00 0.00 0.00 0.00 0.00 0.00 0.00 0.01 0.01 0.02 0.03 0.04 0.04 0.04 0.02 0.03 0.03 0.03 0.04 0.06 0.07 0.08 0.06 0.07 0.09 0.10 0.08 0.06 0.06 0.06 0.05 0.07 0.07 0.04
0.00 0.00 0.00 0.00 0.00 0.00 0.00 0.00 0.00 0.00 0.00 0.00 0.00 0.00 0.00 0.00 0.00 0.00 0.00 0.00 0.00 0.00 0.01 0.01 0.02 0.02 0.02 0.03 0.03 0.04 0.03 0.04 0.04 0.07 0.07 0.05 0.06 0.04 0.04 0.05 0.07 0.06 0.06 0.05 0.05 0.06 0.08 0.07 0.06
0.00 0.00 0.00 0.00 0.00 0.00 0.00 0.00 0.00 0.00 0.00 0.00 0.00 0.00 0.00 0.00 0.00 0.00 0.00 0.00 0.00 0.01 0.01 0.01 0.01 0.01 0.02 0.02 0.02 0.03 0.03 0.04 0.06 0.08 0.05 0.04 0.04 0.05 0.05 0.05 0.04 0.04 0.04 0.04 0.04 0.05 0.07 0.06 0.05
0.00 0.00 0.00 0.00 0.00 0.00 0.00 0.00 0.00 0.00 0.00 0.00 0.00 0.00 0.00 0.00 0.00 0.00 0.00 0.00 0.00 0.01 0.02 0.02 0.01 0.00 0.01 0.03 0.03 0.03 0.03 0.04 0.06 0.05 0.03 0.03 0.03 0.04 0.05 0.05 0.05 0.04 0.03 0.03 0.05 0.06 0.07 0.07 0.06
0.00 0.00 0.00 0.00 0.00 0.00 0.00 0.00 0.00 0.00 0.00 0.00 0.00 0.00 0.00 0.00 0.00 0.00 0.00 0.00 0.00 0.01 0.02 0.02 0.01 0.01 0.01 0.03 0.04 0.04 0.04 0.04 0.03 0.04 0.03 0.03 0.04 0.05 0.06 0.06 0.06 0.04 0.04 0.05 0.06 0.07 0.08 0.08 0.09
0.00 0.00 0.00 0.00 0.00 0.00 0.00 0.00 0.00 0.00 0.00 0.00 0.00 0.00 0.00 0.00 0.00 0.00 0.00 0.00 0.00 0.01 0.01 0.02 0.02 0.02 0.02 0.02 0.04 0.04 0.05 0.04 0.03 0.05 0.05 0.05 0.06 0.06 0.07 0.07 0.06 0.05 0.04 0.07 0.08 0.10 0.10 0.09 0.10
0.00 0.00 0.00 0.00 0.00 0.00 0.00 0.00 0.00 0.00 0.00 0.00 0.00 0.00 0.00 0.00 0.00 0.00 0.00 0.00 0.00 0.00 0.01 0.02 0.03 0.03 0.02 0.02 0.03 0.04 0.06 0.06 0.06 0.07 0.06 0.07 0.07 0.08 0.08 0.08 0.08 0.06 0.05 0.06 0.06 0.07 0.08 0.07 0.09
0.00 0.00 0.00 0.00 0.00 0.00 0.00 0.00 0.00 0.00 0.00 0.00 0.00 0.00 0.00 0.00 0.00 0.00 0.00 0.00 0.00 0.00 0.02 0.02 0.02 0.03 0.02 0.02 0.04 0.03 0.03 0.04 0.05 0.06 0.05 0.05 0.06 0.05 0.05 0.09 0.08 0.06 0.06 0.06 0.05 0.06 0.07 0.07 0.08
0.00 0.00 0.00 0.00 0.00 0.00 0.00 0.00 0.00 0.00 0.00 0.00 0.00 0.00 0.00 0.00 0.00 0.00 0.00 0.00 0.00 0.00 0.01 0.02 0.01 0.02 0.03 0.04 0.04 0.03 0.04 0.05 0.04 0.05 0.05 0.04 0.05 0.04 0.06 0.06 0.07 0.07 0.05 0.07 0.08 0.08 0.09 0.10 0.09
0.00 0.00 0.00 0.00 0.00 0.00 0.00 0.00 0.00 0.00 0.00 0.00 0.00 0.00 0.00 0.00 0.00 0.00 0.00 0.00 0.00 0.00 0.00 0.01 0.01 0.01 0.02 0.03 0.02 0.03 0.05 0.06 0.07 0.05 0.06 0.06 0.06 0.05 0.06 0.05 0.07 0.09 0.07 0.08 0.08 0.07 0.11 0.11 0.11
0.00 0.00 0.00 0.00 0.00 0.00 0.00 0.00 0.00 0.00 0.00 0.00 0.00 0.00 0.00 0.00 0.00 0.00 0.00 0.00 0.00 0.00 0.00 0.01 0.01 0.01 0.01 0.01 0.01 0.03 0.04 0.06 0.07 0.05 0.06 0.07 0.06 0.05 0.03 0.04 0.05 0.07 0.07 0.07 0.07 0.09 0.10 0.10 0.11
0.00 0.00 0.00 0.00 0.00 0.00 0.00 0.00 0.00 0.00 0.00 0.00 0.00 0.00 0.00 0.00 0.00 0.00 0.00 0.00 0.00 0.00 0.00 0.01 0.02 0.01 0.01 0.01 0.01 0.02 0.03 0.05 0.05 0.05 0.06 0.06 0.06 0.06 0.06 0.05 0.05 0.06 0.06 0.07 0.08 0.08 0.08 0.09 0.10
0.00 0.00 0.00 0.00 0.00 0.00 0.00 0.00 0.00 0.00 0.00 0.00 0.00 0.00 0.00 0.00 0.00 0.00 0.00 0.00 0.00 0.00 0.00 0.00 0.01 0.01 0.01 0.01 0.01 0.02 0.02 0.04 0.05 0.05 0.05 0.06 0.07 0.07 0.07 0.07 0.09 0.08 0.07 0.06 0.07 0.07 0.08 0.06 0.07
0.00 0.00 0.00 0.00 0.00 0.00 0.00 0.00 0.00 0.00 0.00 0.00 0.00 0.00 0.00 0.00 0.00 0.00 0.00 0.00 0.00 0.00 0.00 0.00 0.00 0.01 0.02 0.02 0.01 0.01 0.02 0.01 0.01 0.03 0.03 0.04 0.05 0.05 0.06 0.06 0.08 0.07 0.05 0.05 0.07 0.06 0.06 0.05 0.07
0.00 0.00 0.00 0.00 0.00 0.00 0.00 0.00 0.00 0.00 0.00 0.00 0.00 0.00 0.00 0.00 0.00 0.00 0.00 0.00 0.00 0.00 0.00 0.00 0.00 0.01 0.01 0.02 0.02 0.01 0.01 0.02 0.01 0.01 0.02 0.02 0.03 0.04 0.04 0.05 0.05 0.05 0.05 0.07 0.07 0.06 0.04 0.05 0.07
0.00 0.00 0.00 0.00 0.00 0.00 0.00 0.00 0.00 0.00 0.00 0.00 0.00 0.00 0.00 0.00 0.00 0.00 0.00 0.00 0.00 0.00 0.00 0.00 0.00 0.01 0.01 0.01 0.02 0.01 0.02 0.02 0.02 0.02 0.02 0.02 0.02 0.04 0.04 0.04 0.04 0.04 0.05 0.07 0.07 0.05 0.04 0.04 0.06
0.00 0.00 0.00 0.00 0.00 0.00 0.00 0.00 0.00 0.00 0.00 0.00 0.00 0.00 0.00 0.00 0.00 0.00 0.00 0.00 0.00 0.00 0.00 0.00 0.00 0.00 0.01 0.00 0.01 0.01 0.01 0.01 0.01 0.01 0.02 0.03 0.03 0.03 0.04 0.05 0.05 0.04 0.05 0.06 0.06 0.05 0.05 0.05 0.05
0.00 0.00 0.00 0.00 0.00 0.00 0.00 0.00 0.00 0.00 0.00 0.00 0.00 0.00 0.00 0.00 0.00 0.00 0.00 0.00 0.00 0.00 0.01 0.01 0.01 0.00 0.01 0.01 0.00 0.01 0.01 0.01 0.00 0.00 0.01 0.02 0.03 0.03 0.04 0.05 0.05 0.04 0.05 0.04 0.04 0.05 0.05 0.06 0.05
MSLP
1006.54 1007.08 1007.74 1008.46 1009.15 1009.76 1010.23 1010.56 1010.78 1010.91 1011.02 1011.13 1011.26 1011.39 1011.49 1011.53 1011.48 1011.35 1011.17 1011.00 1010.90 1010.93 1011.14 1011.50 1011.98 1012.50 1012.97 1013.33 1013.53 1013.56 1013.47 1013.32 1013.19 1013.15 1013.23 1013.44 1013.75 1014.10 1014.44 1014.72 1014.91 1015.02 1015.08 1015.10 1015.15 1015.25 1015.41 1015.64 1015.91
1006.83 1007.48 1008.24 1009.00 1009.70 1010.27 1010.67 1010.89 1010.98 1010.98 1010.95 1010.95 1010.99 1011.06 1011.14 1011.19 1011.19 1011.13 1011.03 1010.96 1010.96 1011.10 1011.38 1011.82 1012.35 1012.90 1013.38 1013.73 1013.90 1013.91 1013.79 1013.61 1013.47 1013.41 1013.49 1013.69 1013.99 1014.33 1014.65 1014.91 1015.08 1015.17 1015.20 1015.21 1015.25 1015.35 1015.50 1015.72 1015.97
1007.18 1007.94 1008.76 1009.56 1010.25 1010.77 1011.09 1011.21 1011.19 1011.09 1010.97 1010.89 1010.87 1010.92 1010.99 1011.06 1011.10 1011.10 1011.07 1011.07 1011.14 1011.33 1011.66 1012.12 1012.67 1013.21 1013.68 1014.01 1014.18 1014.18 1014.06 1013.90 1013.76 1013.72 1013.79 1013.98 1014.25 1014.55 1014.83 1015.04 1015.18 1015.25 1015.28 1015.30 1015.36 1015.46 1015.63 1015.84 1016.07
1007.55 1008.37 1009.23 1010.03 1010.70 1011.17 1011.43 1011.48 1011.39 1011.23 1011.06 1010.95 1010.91 1010.96 1011.04 1011.14 1011.21 1011.24 1011.25 1011.27 1011.37 1011.57 1011.90 1012.35 1012.86 1013.38 1013.83 1014.16 1014.33 1014.36 1014.28 1014.16 1014.06 1014.04 1014.12 1014.29 1014.53 1014.77 1014.99 1015.15 1015.25 1015.31 1015.34 1015.39 1015.49 1015.63 1015.82 1016.03 1016.24
1007.86 1008.71 1009.57 1010.35 1010.97 1011.40 1011.61 1011.63 1011.52 1011.35 1011.19 1011.09 1011.08 1011.14 1011.25 1011.36 1011.44 1011.48 1011.49 1011.51 1011.59 1011.77 1012.06 1012.46 1012.93 1013.41 1013.84 1014.16 1014.35 1014.43 1014.41 1014.37 1014.33 1014.36 1014.45 1014.61 1014.79 1014.97 1015.13 1015.23 1015.30 1015.35 1015.41 1015.51 1015.66 1015.85 1016.07 1016.29 1016.48
1008.07 1008.90 1009.71 1010.44 1011.01 1011.39 1011.58 1011.61 1011.52 1011.40 1011.29 1011.25 1011.29 1011.39 1011.52 1011.65 1011.72 1011.75 1011.74 1011.73 1011.77 1011.90 1012.13 1012.47 1012.89 1013.32 1013.72 1014.04 1014.27 1014.40 1014.46 1014.49 1014.53 1014.60 1014.71 1014.85 1014.99 1015.12 1015.21 1015.27 1015.31 1015.37 1015.47 1015.62 1015.84 1016.10 1016.36 1016.59 1016.76
1008.16 1008.92 1009.65 1010.29 1010.80 1011.14 1011.33 1011.39 1011.37 1011.33 1011.31 1011.36 1011.47 1011.63 1011.79 1011.92 1011.99 1011.99 1011.95 1011.91 1011.90 1011.98 1012.15 1012.44 1012.79 1013.18 1013.55 1013.87 1014.12 1014.29 1014.42 1014.52 1014.61 1014.73 1014.85 1014.98 1015.08 1015.16 1015.20 1015.23 1015.27 1015.35 1015.49 1015.72 1016.01 1016.33 1016.63 1016.87 1017.03
1008.13 1008.79 1009.41 1009.96 1010.39 1010.70 1010.90 1011.00 1011.07 1011.13 1011.23 1011.38 1011.57 1011.79 1011.98 1012.12 1012.18 1012.16 1012.10 1012.03 1012.00 1012.04 1012.18 1012.42 1012.73 1013.07 1013.41 1013.71 1013.96 1014.15 1014.31 1014.44 1014.57 1014.71 1014.84 1014.95 1015.03 1015.07 1015.09 1015.11 1015.16 1015.28 1015.48 1015.77 1016.13 1016.50 1016.84 1017.09 1017.23
1008.03 1008.58 1009.08 1009.52 1009.88 1010.16 1010.36 1010.52 1010.67 1010.85 1011.06 1011.31 1011.58 1011.85 1012.06 1012.21 1012.27 1012.25 1012.18 1012.11 1012.08 1012.12 1012.25 1012.46 1012.74 1013.05 1013.35 1013.61 1013.83 1014.00 1014.15 1014.28 1014.42 1014.55 1014.67 1014.77 1014.84 1014.88 1014.89 1014.93 1015.01 1015.18 1015.44 1015.80 1016.21 1016.62 1016.98 1017.23 1017.35
1007.92 1008.36 1008.75 1009.08 1009.37 1009.61 1009.82 1010.03 1010.26 1010.53 1010.84 1011.17 1011.50 1011.81 1012.05 1012.20 1012.26 1012.25 1012.20 1012.16 1012.15 1012.22 1012.37 1012.59 1012.85 1013.13 1013.38 1013.59 1013.76 1013.88 1013.98 1014.08 1014.18 1014.29 1014.40 1014.49 1014.56 1014.61 1014.66 1014.73 1014.86 1015.09 1015.41 1015.81 1016.26 1016.70 1017.06 1017.30 1017.40
1007.86 1008.20 1008.49 1008.73 1008.94 1009.15 1009.36 1009.61 1009.90 1010.23 1010.61 1011.00 1011.37 1011.70 1011.95 1012.10 1012.18 1012.18 1012.17 1012.17 1012.22 1012.33 1012.53 1012.77 1013.04 1013.29 1013.50 1013.65 1013.74 1013.80 1013.83 1013.86 1013.92 1013.99 1014.09 1014.18 1014.27 1014.35 1014.45 1014.58 1014.78 1015.06 1015.43 1015.87 1016.34 1016.78 1017.13 1017.34 1017.41
1007.89 1008.16 1008.36 1008.53 1008.68 1008.85 1009.06 1009.31 1009.63 1010.01 1010.42 1010.83 1011.22 1011.54 1011.79 1011.95 1012.03 1012.06 1012.08 1012.14 1012.25 1012.43 1012.68 1012.96 1013.24 1013.48 1013.66 1013.75 1013.78 1013.75 1013.71 1013.68 1013.68 1013.72 1013.80 1013.91 1014.03 1014.17 1014.33 1014.53 1014.79 1015.13 1015.54 1016.00 1016.47 1016.89 1017.21 1017.38 1017.41
1008.04 1008.25 1008.39 1008.49 1008.60 1008.73 1008.91 1009.17 1009.49 1009.87 1010.28 1010.69 1011.06 1011.37 1011.60 1011.75 1011.84 1011.89 1011.95 1012.06 1012.23 1012.47 1012.77 1013.09 1013.40 1013.64 1013.79 1013.85 1013.82 1013.74 1013.64 1013.56 1013.52 1013.54 1013.61 1013.74 1013.90 1014.09 1014.32 1014.60 1014.92 1015.31 1015.75 1016.21 1016.67 1017.05 1017.33 1017.46 1017.45
1008.29 1008.46 1008.55 1008.61 1008.67 1008.76 1008.92 1009.14 1009.44 1009.80 1010.18 1010.56 1010.90 1011.19 1011.40 1011.54 1011.63 1011.70 1011.80 1011.94 1012.16 1012.44 1012.78 1013.13 1013.45 1013.70 1013.85 1013.90 1013.86 1013.75 1013.62 1013.51 1013.45 1013.46 1013.55 1013.69 1013.90 1014.14 1014.43 1014.76 1015.14 1015.56 1016.01 1016.47 1016.90 1017.25 1017.49 1017.58 1017.53
1008.61 1008.74 1008.79 1008.81 1008.83 1008.89 1009.01 1009.20 1009.45 1009.76 1010.09 1010.43 1010.74 1011.00 1011.19 1011.33 1011.43 1011.53 1011.64 1011.81 1012.05 1012.35 1012.70 1013.06 1013.40 1013.66 1013.83 1013.89 1013.86 1013.77 1013.65 1013.54 1013.49 1013.50 1013.60 1013.76 1013.99 1014.27 1014.60 1014.97 1015.37 1015.81 1016.26 1016.70 1017.11 1017.43 1017.63 1017.70 1017.63
1008.94 1009.04 1009.06 1009.05 1009.04 1009.07 1009.14 1009.27 1009.46 1009.71 1009.98 1010.27 1010.54 1010.78 1010.98 1011.13 1011.25 1011.37 1011.51 1011.69 1011.93 1012.23 1012.57 1012.93 1013.27 1013.54 1013.74 1013.83 1013.84 1013.79 1013.71 1013.63 1013.60 1013.62 1013.72 1013.90 1014.13 1014.43 1014.77 1015.14 1015.55 1015.98 1016.43 1016.85 1017.23 1017.53 1017.71 1017.77 1017.71
1009.24 1009.30 1009.31 1009.28 1009.25 1009.24 1009.27 1009.34 1009.45 1009.62 1009.83 1010.06 1010.30 1010.53 1010.74 1010.93 1011.09 1011.25 1011.42 1011.61 1011.85 1012.13 1012.45 1012.78 1013.10 1013.39 1013.61 1013.75 1013.82 1013.83 1013.80 1013.77 1013.76 1013.79 1013.89 1014.05 1014.27 1014.54 1014.86 1015.22 1015.62 1016.03 1016.45 1016.86 1017.22 1017.50 1017.69 1017.76 1017.72
1009.47 1009.51 1009.51 1009.48 1009.45 1009.41 1009.39 1009.39 1009.42 1009.49 1009.61 1009.78 1009.98 1010.21 1010.46 1010.70 1010.93 1011.14 1011.36 1011.57 1011.81 1012.07 1012.35 1012.65 1012.96 1013.24 1013.49 1013.67 1013.80 1013.88 1013.91 1013.92 1013.93 1013.97 1014.05 1014.17 1014.35 1014.58 1014.86 1015.19 1015.55 1015.94 1016.33 1016.72 1017.06 1017.35 1017.55 1017.65 1017.64
1009.61 1009.65 1009.67 1009.67 1009.64 1009.59 1009.52 1009.44 1009.37 1009.33 1009.34 1009.43 1009.59 1009.81 1010.09 1010.40 1010.71 1011.01 1011.29 1011.55 1011.80 1012.05 1012.30 1012.57 1012.85 1013.13 1013.39 1013.61 1013.80 1013.93 1014.02 1014.07 1014.09 1014.12 1014.17 1014.25 1014.37 1014.55 1014.77 1015.05 1015.38 1015.73 1016.10 1016.47 1016.80 1017.09 1017.31 1017.44 1017.48
1009.66 1009.73 1009.81 1009.85 1009.86 1009.81 1009.69 1009.53 1009.33 1009.16 1009.04 1009.02 1009.11 1009.32 1009.62 1010.00 1010.40 1010.80 1011.17 1011.49 1011.77 1012.02 1012.26 1012.51 1012.77 1013.04 1013.31 1013.57 1013.79 1013.97 1014.10 1014.18 1014.21 1014.22 1014.23 1014.26 1014.33 1014.45 1014.62 1014.86 1015.14 1015.47 1015.81 1016.16 1016.49 1016.78 1017.01 1017.17 1017.25
1009.63 1009.77 1009.93 1010.07 1010.13 1010.09 1009.94 1009.68 1009.35 1009.02 1008.74 1008.57 1008.56 1008.72 1009.03 1009.45 1009.93 1010.43 1010.90 1011.30 1011.64 1011.92 1012.17 1012.41 1012.65 1012.92 1013.21 1013.49 1013.75 1013.97 1014.13 1014.22 1014.26 1014.25 1014.23 1014.21 1014.23 1014.30 1014.44 1014.65 1014.90 1015.21 1015.53 1015.87 1016.18 1016.46 1016.69 1016.87 1016.98
1009.53 1009.78 1010.06 1010.30 1010.45 1010.44 1010.26 1009.91 1009.44 1008.93 1008.46 1008.13 1007.98 1008.04 1008.31 1008.75 1009.30 1009.88 1010.43 1010.92 1011.33 1011.66 1011.94 1012.19 1012.45 1012.73 1013.02 1013.33 1013.62 1013.87 1014.05 1014.17 1014.20 1014.19 1014.14 1014.10 1014.09 1014.14 1014.26 1014.45 1014.69 1014.98 1015.30 1015.61 1015.90 1016.16 1016.38 1016.56 1016.69
1009.36 1009.74 1010.16 1010.53 1010.78 1010.82 1010.63 1010.20 1009.60 1008.91 1008.24 1007.71 1007.39 1007.33 1007.53 1007.94 1008.50 1009.14 1009.77 1010.34 1010.82 1011.21 1011.53 1011.82 1012.10 1012.40 1012.72 1013.06 1013.38 1013.65 1013.86 1013.99 1014.04 1014.02 1013.97 1013.92 1013.90 1013.95 1014.06 1014.25 1014.50 1014.79 1015.09 1015.38 1015.65 1015.88 1016.08 1016.24 1016.37
1009.13 1009.63 1010.20 1010.71 1011.06 1011.17 1010.98 1010.50 1009.79 1008.94 1008.09 1007.37 1006.87 1006.65 1006.74 1007.09 1007.63 1008.28 1008.95 1009.57 1010.11 1010.56 1010.93 1011.26 1011.59 1011.92 1012.28 1012.65 1013.00 1013.31 1013.55 1013.70 1013.76 1013.75 1013.71 1013.66 1013.65 1013.71 1013.83 1014.03 1014.29 1014.57 1014.86 1015.13 1015.37 1015.57 1015.73 1015.88 1016.01
1008.82 1009.44 1010.13 1010.77 1011.23 1011.42 1011.26 1010.76 1009.98 1009.01 1008.01 1007.12 1006.46 1006.09 1006.04 1006.29 1006.78 1007.40 1008.07 1008.71 1009.29 1009.78 1010.20 1010.57 1010.94 1011.32 1011.72 1012.13 1012.52 1012.86 1013.13 1013.30 1013.38 1013.39 1013.35 1013.32 1013.32 1013.39 1013.53 1013.74 1014.00 1014.28 1014.56 1014.80 1015.01 1015.18 1015.33 1015.46 1015.60
1008.45 1009.14 1009.92 1010.66 1011.23 1011.50 1011.40 1010.93 1010.12 1009.10 1008.01 1007.01 1006.21 1005.70 1005.53 1005.67 1006.06 1006.61 1007.24 1007.87 1008.45 1008.96 1009.41 1009.82 1010.23 1010.65 1011.09 1011.54 1011.97 1012.35 1012.65 1012.84 1012.94 1012.96 1012.94 1012.91 1012.92 1013.00 1013.14 1013.35 1013.61 1013.88 1014.14 1014.37 1014.55 1014.70 1014.83 1014.97 1015.13
1008.04 1008.75 1009.58 1010.39 1011.03 1011.39 1011.37 1010.95 1010.19 1009.19 1008.08 1007.02 1006.15 1005.55 1005.27 1005.29 1005.57 1006.04 1006.59 1007.17 1007.71 1008.21 1008.66 1009.10 1009.54 1010.00 1010.48 1010.97 1011.43 1011.84 1012.16 1012.38 1012.49 1012.52 1012.50 1012.48 1012.49 1012.55 1012.69 1012.89 1013.13 1013.39 1013.63 1013.84 1014.01 1014.14 1014.28 1014.43 1014.63
1007.63 1008.31 1009.14 1009.97 1010.67 1011.10 1011.17 1010.85 1010.18 1009.25 1008.20 1007.17 1006.28 1005.64 1005.28 1005.20 1005.38 1005.73 1006.18 1006.67 1007.15 1007.61 1008.04 1008.48 1008.93 1009.41 1009.93 1010.45 1010.95 1011.39 1011.74 1011.97 1012.10 1012.14 1012.12 1012.08 1012.08 1012.12 1012.24 1012.41 1012.63 1012.86 1013.08 1013.27 1013.44 1013.57 1013.72 1013.90 1014.14
1007.30 1007.91 1008.69 1009.51 1010.22 1010.70 1010.85 1010.65 1010.11 1009.31 1008.37 1007.43 1006.58 1005.94 1005.54 1005.39 1005.47 1005.70 1006.03 1006.41 1006.80 1007.19 1007.58 1007.99 1008.45 1008.94 1009.48 1010.03 1010.56 1011.04 1011.41 1011.67 1011.81 1011.86 1011.84 1011.80 1011.77 1011.79 1011.88 1012.02 1012.21 1012.41 1012.61 1012.79 1012.94 1013.09 1013.25 1013.46 1013.73
1007.13 1007.65 1008.35 1009.11 1009.80 1010.30 1010.52 1010.43 1010.02 1009.37 1008.58 1007.75 1007.00 1006.39 1005.98 1005.78 1005.76 1005.88 1006.09 1006.35 1006.63 1006.93 1007.26 1007.63 1008.07 1008.57 1009.12 1009.70 1010.26 1010.77 1011.19 1011.48 1011.65 1011.71 1011.70 1011.66 1011.63 1011.63 1011.69 1011.80 1011.96 1012.13 1012.31 1012.48 1012.63 1012.78 1012.95 1013.17 1013.47
Thickness
5845 5848 5848 5841 5828 5812 5793 5796 5802 5797 5795 5799 5799 5795 5786 5779 5773 5759 5777 5783 5780 5779 5775 5769 5766 5766 5765 5764 5763 5762 5762 5762 5762 5762 5761 5761 5760 5759 5759 5758 5757 5757 5757 5757 5756 5755 5755 5754 5754
5856 5853 5848 5842 5822 5796 5788 5800 5797 5795 5798 5802 5799 5795 5787 5779 5782 5777 5779 5779 5780 5779 5776 5770 5764 5764 5763 5762 5762 5761 5760 5760 5761 5761 5760 5759 5758 5758 5757 5756 5756 5756 5756 5755 5754 5754 5753 5753 5752
5859 5857 5846 5836 5815 5798 5791 5801 5799 5802 5805 5801 5794 5793 5786 5777 5780 5780 5782 5781 5781 5778 5774 5767 5763 5763 5761 5761 5760 5760 5759 5759 5759 5759 5758 5757 5757 5756 5755 5754 5754 5754 5754 5754 5753 5752 5752 5751 5751
5861 5856 5849 5830 5808 5808 5807 5807 5807 5803 5802 5802 5797 5786 5784 5785 5785 5786 5784 5783 5780 5776 5774 5767 5763 5763 5761 5760 5759 5758 5758 5758 5757 5756 5757 5756 5755 5755 5754 5754 5753 5753 5752 5752 5751 5751 5750 5750 5749
5866 5855 5835 5821 5812 5814 5818 5816 5813 5804 5799 5799 5797 5783 5777 5785 5790 5788 5785 5783 5780 5778 5775 5768 5762 5761 5760 5759 5758 5758 5757 5756 5755 5755 5755 5755 5754 5753 5753 5753 5752 5752 5751 5750 5750 5749 5749 5749 5748
5859 5854 5831 5813 5810 5817 5821 5822 5817 5806 5800 5799 5796 5784 5776 5786 5787 5786 5786 5783 5782 5779 5775 5767 5761 5760 5759 5758 5758 5757 5756 5755 5755 5754 5754 5753 5753 5752 5751 5751 5751 5750 5750 5749 5749 5748 5748 5748 5747
5855 5846 5828 5822 5815 5814 5819 5826 5818 5809 5802 5800 5801 5787 5781 5786 5788 5788 5786 5783 5781 5779 5776 5771 5767 5762 5759 5758 5756 5756 5755 5754 5754 5753 5752 5752 5751 5750 5750 5750 5749 5749 5749 5748 5748 5747 5747 5747 5747
5867 5853 5835 5828 5820 5815 5826 5826 5822 5816 5806 5811 5808 5791 5782 5786 5790 5789 5785 5782 5779 5778 5777 5772 5770 5766 5763 5760 5756 5755 5755 5753 5753 5752 5751 5751 5750 5750 5750 5750 5749 5748 5747 5747 5747 5747 5747 5746 5746
5870 5850 5830 5829 5824 5822 5831 5824 5822 5825 5815 5811 5810 5806 5801 5796 5792 5787 5782 5779 5776 5775 5776 5775 5772 5768 5765 5763 5758 5756 5755 5753 5753 5752 5751 5752 5753 5753 5751 5750 5748 5747 5747 5746 5746 5746 5746 5746 5746
5864 5844 5836 5843 5842 5835 5832 5827 5823 5818 5810 5806 5804 5804 5803 5796 5791 5786 5783 5779 5777 5774 5775 5773 5772 5770 5767 5764 5761 5759 5759 5756 5755 5754 5754 5754 5753 5753 5752 5749 5748 5747 5747 5746 5746 5746 5747 5748 5750
5862 5848 5849 5850 5851 5846 5835 5831 5832 5821 5809 5810 5805 5801 5800 5796 5792 5790 5787 5785 5782 5779 5776 5775 5773 5770 5768 5765 5763 5761 5760 5758 5757 5755 5754 5753 5753 5753 5753 5751 5750 5749 5748 5749 5747 5748 5751 5751 5751
5858 5856 5856 5854 5854 5847 5840 5835 5830 5826 5822 5826 5821 5813 5805 5799 5795 5793 5790 5787 5785 5780 5777 5776 5773 5769 5766 5766 5764 5762 5762 5760 5759 5755 5755 5754 5754 5754 5753 5751 5752 5752 5751 5750 5750 5750 5751 5751 5751
5856 5855 5859 5860 5856 5851 5844 5837 5832 5828 5832 5831 5824 5815 5809 5804 5801 5798 5795 5791 5786 5781 5779 5777 5773 5769 5765 5763 5763 5763 5762 5761 5759 5756 5755 5754 5755 5754 5753 5752 5751 5753 5752 5750 5750 5750 5750 5750 5751
5860 5859 5857 5858 5854 5850 5841 5837 5833 5830 5835 5828 5821 5815 5813 5809 5805 5800 5795 5791 5787 5784 5781 5779 5774 5770 5766 5764 5762 5762 5762 5758 5759 5757 5755 5754 5755 5754 5754 5753 5752 5752 5752 5751 5751 5751 5750 5751 5752
5865 5853 5849 5852 5852 5850 5844 5829 5832 5838 5836 5826 5822 5819 5815 5813 5810 5804 5800 5795 5792 5787 5784 5780 5776 5773 5769 5767 5765 5764 5762 5761 5759 5757 5755 5754 5754 5753 5753 5753 5752 5752 5751 5750 5750 5751 5751 5751 5753
5859 5848 5837 5846 5850 5849 5837 5824 5839 5844 5836 5826 5824 5821 5817 5814 5813 5810 5807 5801 5797 5792 5786 5782 5782 5776 5771 5768 5766 5766 5764 5762 5760 5758 5756 5754 5753 5753 5752 5753 5753 5752 5752 5752 5752 5752 5752 5751 5752
5846 5839 5838 5841 5851 5848 5839 5833 5844 5848 5839 5830 5827 5825 5820 5816 5815 5814 5811 5806 5801 5795 5790 5784 5782 5778 5774 5770 5768 5767 5764 5762 5761 5759 5758 5756 5754 5753 5753 5753 5753 5752 5753 5753 5754 5753 5752 5750 5750
5836 5840 5838 5838 5849 5846 5839 5841 5847 5848 5843 5836 5832 5829 5824 5820 5819 5819 5815 5811 5805 5800 5794 5788 5784 5780 5777 5773 5769 5767 5765 5764 5763 5761 5759 5757 5756 5755 5755 5754 5753 5754 5754 5753 5752 5750 5750 5750 5750
5847 5841 5838 5844 5854 5845 5840 5842 5848 5848 5844 5839 5835 5832 5829 5827 5829 5825 5819 5815 5809 5802 5796 5791 5787 5783 5779 5776 5772 5769 5767 5766 5765 5764 5761 5759 5758 5757 5755 5757 5755 5754 5754 5752 5752 5751 5750 5750 5751
5841 5836 5838 5844 5850 5844 5842 5843 5853 5851 5846 5845 5841 5837 5834 5832 5830 5825 5821 5817 5812 5805 5800 5795 5790 5787 5783 5780 5776 5773 5771 5769 5768 5766 5763 5761 5760 5759 5759 5756 5756 5756 5754 5752 5752 5751 5751 5752 5752
5837 5837 5839 5837 5841 5844 5839 5837 5845 5851 5852 5850 5848 5846 5844 5839 5834 5828 5824 5820 5816 5810 5805 5801 5796 5791 5787 5783 5780 5776 5772 5770 5769 5766 5765 5763 5761 5760 5759 5758 5758 5757 5757 5755 5754 5753 5751 5749 5752
5828 5844 5842 5837 5830 5831 5833 5822 5840 5848 5846 5847 5848 5848 5847 5845 5841 5835 5829 5824 5821 5816 5812 5806 5800 5794 5790 5786 5783 5778 5773 5770 5770 5769 5768 5765 5763 5762 5761 5759 5758 5757 5758 5757 5756 5758 5754 5751 5749
5836 5845 5840 5836 5831 5827 5831 5822 5837 5847 5841 5846 5852 5853 5853 5851 5847 5841 5836 5831 5827 5823 5817 5810 5803 5797 5793 5789 5785 5780 5777 5776 5775 5772 5768 5765 5765 5763 5762 5760 5759 5757 5757 5757 5756 5756 5755 5754 5751
5837 5834 5830 5831 5830 5807 5821 5817 5823 5845 5845 5850 5855 5856 5855 5854 5851 5846 5842 5836 5830 5826 5820 5813 5805 5799 5796 5792 5788 5783 5780 5777 5774 5770 5768 5767 5767 5765 5763 5762 5760 5758 5758 5757 5756 5755 5754 5753 5752
5828 5817 5801 5797 5798 5805 5825 5816 5826 5849 5855 5855 5855 5857 5858 5857 5852 5847 5841 5836 5831 5826 5822 5816 5808 5801 5798 5795 5791 5787 5783 5779 5775 5772 5770 5768 5768 5766 5763 5763 5760 5759 5757 5756 5755 5754 5753 5753 5751
5822 5823 5800 5789 5795 5812 5814 5812 5834 5853 5855 5858 5860 5860 5859 5857 5854 5849 5844 5839 5833 5828 5823 5818 5811 5804 5801 5797 5792 5790 5786 5784 5782 5777 5774 5771 5769 5768 5765 5762 5760 5759 5758 5757 5755 5755 5753 5752 5750
5815 5818 5834 5818 5809 5804 5815 5823 5836 5847 5847 5850 5853 5853 5852 5854 5853 5849 5845 5841 5835 5830 5825 5821 5813 5807 5803 5800 5795 5791 5788 5785 5783 5779 5776 5775 5771 5769 5766 5763 5760 5758 5757 5756 5754 5754 5752 5751 5750
5822 5824 5816 5807 5787 5784 5801 5809 5818 5828 5834 5841 5844 5845 5847 5849 5850 5849 5845 5841 5837 5833 5827 5821 5816 5810 5806 5802 5798 5795 5790 5787 5783 5781 5777 5775 5772 5769 5766 5763 5761 5758 5756 5755 5752 5751 5750 5748 5747
5803 5805 5808 5809 5808 5789 5787 5807 5832 5829 5832 5835 5840 5843 5844 5845 5846 5845 5843 5841 5838 5834 5828 5821 5815 5810 5807 5804 5799 5796 5792 5788 5784 5781 5778 5776 5773 5769 5766 5763 5760 5758 5756 5754 5751 5750 5749 5747 5745
5810 5808 5805 5791 5789 5796 5796 5807 5831 5832 5834 5834 5836 5838 5841 5842 5843 5842 5839 5836 5833 5830 5826 5820 5816 5811 5808 5805 5800 5796 5792 5788 5784 5781 5778 5776 5772 5769 5766 5763 5760 5757 5755 5753 5751 5749 5748 5745 5743